Regional Weather Roundup
Issued by NWS

Home | Current Version | Previous Version | Text Only | Print | Product List | Glossary Off
Versions: 1 2 3 4 5 6 7 8 9 10 11 12 13 14 15 16 17 18 19 20 21 22 23 24 25 26 27 28 29 30 31 32 33 34 35 36 37 38 39 40 41 42 43 44 45 46 47 48 49 50

026
ASUS43 KLMK 111010
RWRKY
KENTUCKY REGIONAL WEATHER ROUNDUP
NATIONAL WEATHER SERVICE LOUISVILLE KY
500 AM EST MON DEC 11 2017

NOTE "FAIR" INDICATES FEW OR NO CLOUDS BELOW 12,000 FEET
WITH NO SIGNIFICANT WEATHER AND/OR OBSTRUCTIONS TO VISIBILITY.

KYZ001>023-026-027-061>063-070>075-111100-
WESTERN AND SOUTH CENTRAL KENTUCKY

CITY           SKY/WX    TMP DP  RH WIND       PRES   REMARKS
PADUCAH        CLEAR     28  24  85 CALM      30.12F
HENDERSON      NOT AVBL
OWENSBORO      CLEAR     27  24  89 CALM      30.13F
HOPKINSVILLE   CLEAR     32  24  72 CALM      30.12F
BOWLING GREEN  CLEAR     27  23  85 CALM      30.14F
GLASGOW        CLEAR     26  22  87 CALM      30.13S
$$

KYZ024-025-028>034-038-045-046-053-111100-
NORTH CENTRAL KENTUCKY

CITY           SKY/WX    TMP DP  RH WIND       PRES   REMARKS
LOUISVILLE/SDF CLEAR     28  23  81 CALM      30.11F
LOUISVILLE/LOU CLEAR     26  23  88 CALM      30.12S
FORT KNOX      CLEAR     26  22  84 CALM      30.09F
$$

KYZ035>037-039>044-047>052-055>060-089>105-111100-
NORTHEAST KENTUCKY

CITY           SKY/WX    TMP DP  RH WIND       PRES   REMARKS
LEXINGTON      CLEAR     27  20  75 S6        30.10F WCI  20
COVINGTON      CLEAR     23  20  88 W3        30.09R
FRANKFORT      CLEAR     24  17  74 CALM      30.09F
$$

KYZ054-064>069-076>088-106>120-111100-
SOUTHEAST KENTUCKY

CITY           SKY/WX    TMP DP  RH WIND       PRES   REMARKS
JACKSON        CLEAR     33  21  61 SW6       30.09F WCI  28
LONDON         CLEAR     27  20  75 CALM      30.11F
SOMERSET       CLEAR     28  23  80 CALM      30.13F
MIDDLESBORO    CLEAR     25  22  89 CALM      30.15F
MONTICELLO     SUNNY     25  22  88 NE8       30.14F WCI  16
$$





USA.gov is the U.S. government's official web portal to all federal, state and local government web resources and services.